Meath Environmental Platform

Observations for Trim Patrick St

Time AQI Temp °C Hum % Pres Pa CO μg/m³ H₂S μg/m³ NO μg/m³ NO₂ μg/m³ O₃ μg/m³ SO₂ μg/m³ PM1 μg/m³ PM2.5 μg/m³ PM10 μg/m³
Wednesday 5 August 2026
21:59 2 15.3 64 75,729 0.12 2.34 2.98 9.09 60.02 0 2 6.97 7.67
21:58 2 15.3 64 75,703 0.12 2.55 2.98 10.9 62.42 0 2 5.51 6.06
21:57 2 15.3 64 75,688 0.12 2.16 2.98 8.85 51.61 0 2 6.25 6.88
21:52 2 15.4 64 75,662 0.12 2.7 2.97 9.02 54.16 0 2 6.25 6.88
21:51 2 15.4 64 75,648 0.13 2.96 2.96 11.57 62.23 0 2 6.25 6.88
21:50 2 15.4 64 75,642 0.13 3.12 2.95 10.72 57.1 0 2 7 7.7
21:49 2 15.4 64 75,635 0.11 2.99 2.91 11.57 58.75 0 2.86 7.72 8.49
21:48 2 15.4 64 75,625 0.13 2.37 2.93 9.77 59.1 0 3.71 7.72 8.5
21:47 2 15.4 64 75,627 0.11 2.13 2.91 9.41 56.64 0 2 5.53 6.08
21:46 2 15.4 64 75,642 0.11 2.26 2.87 8.77 55.19 0 2.86 6.26 6.89
21:45 2 15.4 64 75,654 0.11 3.28 2.88 10.36 59.06 0 2 6.25 6.88
21:44 2 15.4 64 75,629 0.11 3.56 2.94 11.56 60.87 0 2.86 6.98 7.68
21:43 2 15.4 64 75,607 0.09 3.2 2.93 10.96 62.81 0 2.86 6.99 7.69
21:42 2 15.4 64 75,593 0.11 2.94 2.94 9.39 59.43 0 2 7.01 7.71
21:41 2 15.4 64 75,601 0.09 2.86 2.93 10.46 61.67 0 2 6.27 6.9
21:40 2 15.4 64 75,605 0.09 3.17 2.86 9.1 59.44 0 2 6.27 6.9
21:39 2 15.5 64 75,621 0.08 3.2 2.88 9.45 61.72 0 2 6.27 6.9
21:38 2 15.4 64 75,629 0.1 3.93 2.93 11.38 60.01 0 2 6.26 6.89
21:37 2 15.4 64 75,637 0.08 2.99 2.93 10.22 60.58 0 2 6.28 6.9
21:36 2 15.5 64 75,642 0.06 2.13 2.94 8.92 59.14 0 2.86 7.01 7.71